STARLINK-1184, 45098

Orbit data source: Space-Track

STARLINK-1184, 45098 is a payload satellite owned by SpaceX/Seattle (US) in LEO that was launched on Wed, 29 Jan 2020 UTC via an FALCON 9 launch vehicle from the Air Force Eastern Test Range (AFETR). Payload-class satellites include a variety of spacecraft equipped with specific instruments for various scientific and technological missions. These include communications satellites like Starlink; space stations such as the ISS; scientific satellites like the Hubble; Earth observation satellites from companies like Planet Labs, Umbra, and HawkEye 360; GPS; miniature CubeSats for education and research; and military/defense satellites.

Loading next visibility...
Identifier
45098, 2020-006BG
Orbit
LEO
Country
Flag of USUS
Related business
Manufacturer
SpaceX/Seattle
Mission
Partially operational Commercial Communications
Bus & Motor
STARLINK, Unknown motor
Mass
260 kg wet, ~248 kg dry
Launch date (UTC)
2020-01-29 (6 years ago)
Launch vehicle
FALCON 9
Launch site
Air Force Eastern Test Range (AFETR)
Object type
Payload
Rocket body
Debris
Shape & HBR
Box + 1 Pan, 10.1 m
Radar Cross Section
13.562 m², Large (>1 m²)

Expand to show TLE details & history
Last TLE update: 14 hours ago

TLE from 14 hours ago
0 STARLINK-1184
1 45098U 20006BG  26170.61852230  .00019569  00000-0  10543-2 0  9992
2 45098  53.0525 143.4092 0005281  66.9082 293.2467 15.14817988352463
Epoch: 2026-06-19T14:50Z
TLE epoch observation values (Epoch: 2026-06-19T14:50:40.326Z)
Latitude
-0.00002°
Longitude
12.89625°
Altitude
520.977 km
Speed
7.605 km/s
True Right ascension
09h 33m 38s
True Declination
0° 00' 00"
Sunlit
Object was in daylight at epoch
Visualization orbit readout
Latitude
Unknown
Longitude
Unknown
Altitude
Unknown
Speed
Unknown
Apparent Right ascension
Unknown
Apparent Declination
Unknown
Sunlit
N/A
Visualization observer readout
Local Sidereal Time
15:16:26
Azimuth
Unknown
Elevation
Unknown
Doppler factor
Unknown
Orbital elements
Apogee altitude
525.447 km
Perigee altitude
518.159 km
Semi-major axis
6,899.94 km
Eccentricity
0.00053
Inclination
53.0525°
RAAN
143.4092°
Arg. of periapsis
66.9082°
True anomaly
293.19108°
Mean anomaly
293.2467°
Eccentric anomaly
293.21889°
Mean motion
3.78682 °/min
Orbital period
95.07 mins
BSTAR
0.0010543
Loading maneuver chart data...
Computing Atmospheric mass density...

Documentation

Showing up to 5 results
|